Time,TemperatureF,DewpointF,PressureIn,WindDirection,WindDirectionDegrees,WindSpeedMPH,WindSpeedGustMPH,Humidity,HourlyPrecipIn,Conditions,Clouds,dailyrainin,SoftwareType,DateUTC
2013-03-27 00:00:00,55.0,51.5,29.66,North,-999,-999.0,-999.0,88,-99.99,,,-99.99,Netatmo,2013-03-26 23:00:00,
2013-03-27 00:06:00,55.0,51.5,29.66,North,-999,-999.0,-999.0,88,-99.99,,,-99.99,Netatmo,2013-03-26 23:06:00,
2013-03-27 00:10:00,55.0,51.5,29.66,North,-999,-999.0,-999.0,88,-99.99,,,-99.99,Netatmo,2013-03-26 23:10:00,
2013-03-27 00:16:00,55.0,51.5,29.66,North,-999,-999.0,-999.0,88,-99.99,,,-99.99,Netatmo,2013-03-26 23:16:00,
2013-03-27 00:21:00,55.0,51.5,29.66,North,-999,-999.0,-999.0,88,-99.99,,,-99.99,Netatmo,2013-03-26 23:21:00,
2013-03-27 00:26:00,55.0,51.5,29.66,North,-999,-999.0,-999.0,88,-99.99,,,-99.99,Netatmo,2013-03-26 23:26:00,
2013-03-27 00:36:00,54.9,51.4,29.66,North,-999,-999.0,-999.0,88,-99.99,,,-99.99,Netatmo,2013-03-26 23:36:00,
2013-03-27 00:40:00,55.0,51.2,29.67,North,-999,-999.0,-999.0,87,-99.99,,,-99.99,Netatmo,2013-03-26 23:40:00,
2013-03-27 00:41:00,54.9,51.4,29.66,North,-999,-999.0,-999.0,88,-99.99,,,-99.99,Netatmo,2013-03-26 23:41:00,
2013-03-27 00:46:00,55.0,51.2,29.67,North,-999,-999.0,-999.0,87,-99.99,,,-99.99,Netatmo,2013-03-26 23:46:00,
2013-03-27 00:51:00,54.9,51.0,29.66,North,-999,-999.0,-999.0,87,-99.99,,,-99.99,Netatmo,2013-03-26 23:51:00,
2013-03-27 00:56:00,54.9,51.0,29.66,North,-999,-999.0,-999.0,87,-99.99,,,-99.99,Netatmo,2013-03-26 23:56:00,
2013-03-27 01:01:00,54.9,51.0,29.67,North,-999,-999.0,-999.0,87,-99.99,,,-99.99,Netatmo,2013-03-27 00:01:00,
2013-03-27 01:06:00,54.9,51.0,29.67,North,-999,-999.0,-999.0,87,-99.99,,,-99.99,Netatmo,2013-03-27 00:06:00,
2013-03-27 01:16:00,54.5,50.7,29.67,North,-999,-999.0,-999.0,87,-99.99,,,-99.99,Netatmo,2013-03-27 00:16:00,
2013-03-27 01:20:00,54.5,50.4,29.67,North,-999,-999.0,-999.0,86,-99.99,,,-99.99,Netatmo,2013-03-27 00:20:00,
2013-03-27 01:26:00,54.5,50.4,29.67,North,-999,-999.0,-999.0,86,-99.99,,,-99.99,Netatmo,2013-03-27 00:26:00,
2013-03-27 01:31:00,54.5,50.4,29.67,North,-999,-999.0,-999.0,86,-99.99,,,-99.99,Netatmo,2013-03-27 00:31:00,
2013-03-27 01:36:00,54.5,50.4,29.67,North,-999,-999.0,-999.0,86,-99.99,,,-99.99,Netatmo,2013-03-27 00:36:00,
2013-03-27 01:46:00,54.5,50.4,29.67,North,-999,-999.0,-999.0,86,-99.99,,,-99.99,Netatmo,2013-03-27 00:46:00,
2013-03-27 01:51:00,54.5,50.4,29.67,North,-999,-999.0,-999.0,86,-99.99,,,-99.99,Netatmo,2013-03-27 00:51:00,
2013-03-27 02:01:00,54.5,50.4,29.67,North,-999,-999.0,-999.0,86,-99.99,,,-99.99,Netatmo,2013-03-27 01:01:00,
2013-03-27 02:11:00,54.3,49.9,29.67,North,-999,-999.0,-999.0,85,-99.99,,,-99.99,Netatmo,2013-03-27 01:11:00,
2013-03-27 02:21:00,54.3,49.9,29.67,North,-999,-999.0,-999.0,85,-99.99,,,-99.99,Netatmo,2013-03-27 01:21:00,
2013-03-27 02:26:00,54.0,49.6,29.67,North,-999,-999.0,-999.0,85,-99.99,,,-99.99,Netatmo,2013-03-27 01:26:00,
2013-03-27 02:31:00,54.0,49.6,29.67,North,-999,-999.0,-999.0,85,-99.99,,,-99.99,Netatmo,2013-03-27 01:31:00,
2013-03-27 02:36:00,53.8,49.4,29.67,North,-999,-999.0,-999.0,85,-99.99,,,-99.99,Netatmo,2013-03-27 01:36:00,
2013-03-27 02:41:00,53.8,49.4,29.67,North,-999,-999.0,-999.0,85,-99.99,,,-99.99,Netatmo,2013-03-27 01:41:00,
2013-03-27 02:51:00,53.8,49.4,29.67,North,-999,-999.0,-999.0,85,-99.99,,,-99.99,Netatmo,2013-03-27 01:51:00,
2013-03-27 02:56:00,53.6,49.5,29.67,North,-999,-999.0,-999.0,86,-99.99,,,-99.99,Netatmo,2013-03-27 01:56:00,
2013-03-27 03:06:00,53.6,49.5,29.67,North,-999,-999.0,-999.0,86,-99.99,,,-99.99,Netatmo,2013-03-27 02:06:00,
2013-03-27 03:11:00,53.6,49.5,29.67,North,-999,-999.0,-999.0,86,-99.99,,,-99.99,Netatmo,2013-03-27 02:11:00,
2013-03-27 03:16:00,53.6,49.5,29.68,North,-999,-999.0,-999.0,86,-99.99,,,-99.99,Netatmo,2013-03-27 02:16:00,
2013-03-27 03:26:00,53.4,49.3,29.67,North,-999,-999.0,-999.0,86,-99.99,,,-99.99,Netatmo,2013-03-27 02:26:00,
2013-03-27 03:31:00,53.4,49.3,29.67,North,-999,-999.0,-999.0,86,-99.99,,,-99.99,Netatmo,2013-03-27 02:31:00,
2013-03-27 03:41:00,53.4,49.3,29.67,North,-999,-999.0,-999.0,86,-99.99,,,-99.99,Netatmo,2013-03-27 02:41:00,
2013-03-27 03:46:00,53.6,49.5,29.68,North,-999,-999.0,-999.0,86,-99.99,,,-99.99,Netatmo,2013-03-27 02:46:00,
2013-03-27 03:51:00,53.6,49.5,29.68,North,-999,-999.0,-999.0,86,-99.99,,,-99.99,Netatmo,2013-03-27 02:51:00,
2013-03-27 04:01:00,53.8,49.7,29.67,North,-999,-999.0,-999.0,86,-99.99,,,-99.99,Netatmo,2013-03-27 03:01:00,
2013-03-27 04:06:00,53.8,49.7,29.68,North,-999,-999.0,-999.0,86,-99.99,,,-99.99,Netatmo,2013-03-27 03:06:00,
2013-03-27 04:11:00,53.8,49.7,29.68,North,-999,-999.0,-999.0,86,-99.99,,,-99.99,Netatmo,2013-03-27 03:11:00,
2013-03-27 04:21:00,53.8,49.7,29.68,North,-999,-999.0,-999.0,86,-99.99,,,-99.99,Netatmo,2013-03-27 03:21:00,
2013-03-27 04:26:00,54.0,50.2,29.68,North,-999,-999.0,-999.0,87,-99.99,,,-99.99,Netatmo,2013-03-27 03:26:00,
2013-03-27 04:36:00,54.0,50.2,29.68,North,-999,-999.0,-999.0,87,-99.99,,,-99.99,Netatmo,2013-03-27 03:36:00,
2013-03-27 04:46:00,54.0,50.2,29.68,North,-999,-999.0,-999.0,87,-99.99,,,-99.99,Netatmo,2013-03-27 03:46:00,
2013-03-27 04:51:00,54.0,50.2,29.68,North,-999,-999.0,-999.0,87,-99.99,,,-99.99,Netatmo,2013-03-27 03:51:00,
2013-03-27 04:56:00,54.0,50.2,29.68,North,-999,-999.0,-999.0,87,-99.99,,,-99.99,Netatmo,2013-03-27 03:56:00,
2013-03-27 05:01:00,54.0,50.2,29.68,North,-999,-999.0,-999.0,87,-99.99,,,-99.99,Netatmo,2013-03-27 04:01:00,
2013-03-27 05:11:00,53.8,50.0,29.68,North,-999,-999.0,-999.0,87,-99.99,,,-99.99,Netatmo,2013-03-27 04:11:00,
2013-03-27 05:16:00,54.0,50.2,29.68,North,-999,-999.0,-999.0,87,-99.99,,,-99.99,Netatmo,2013-03-27 04:16:00,
2013-03-27 05:21:00,54.0,50.2,29.68,North,-999,-999.0,-999.0,87,-99.99,,,-99.99,Netatmo,2013-03-27 04:21:00,
2013-03-27 05:26:00,54.0,50.2,29.68,North,-999,-999.0,-999.0,87,-99.99,,,-99.99,Netatmo,2013-03-27 04:26:00,
2013-03-27 05:31:00,54.0,50.2,29.68,North,-999,-999.0,-999.0,87,-99.99,,,-99.99,Netatmo,2013-03-27 04:31:00,
2013-03-27 05:41:00,54.0,50.2,29.69,North,-999,-999.0,-999.0,87,-99.99,,,-99.99,Netatmo,2013-03-27 04:41:00,
2013-03-27 05:46:00,54.0,50.2,29.69,North,-999,-999.0,-999.0,87,-99.99,,,-99.99,Netatmo,2013-03-27 04:46:00,
2013-03-27 05:51:00,54.0,50.2,29.69,North,-999,-999.0,-999.0,87,-99.99,,,-99.99,Netatmo,2013-03-27 04:51:00,
2013-03-27 05:56:00,54.1,50.3,29.69,North,-999,-999.0,-999.0,87,-99.99,,,-99.99,Netatmo,2013-03-27 04:56:00,
2013-03-27 06:01:00,54.1,50.3,29.69,North,-999,-999.0,-999.0,87,-99.99,,,-99.99,Netatmo,2013-03-27 05:01:00,
2013-03-27 06:06:00,54.1,50.3,29.70,North,-999,-999.0,-999.0,87,-99.99,,,-99.99,Netatmo,2013-03-27 05:06:00,
2013-03-27 06:16:00,54.1,50.3,29.70,North,-999,-999.0,-999.0,87,-99.99,,,-99.99,Netatmo,2013-03-27 05:16:00,
2013-03-27 06:26:00,54.1,50.3,29.70,North,-999,-999.0,-999.0,87,-99.99,,,-99.99,Netatmo,2013-03-27 05:26:00,
2013-03-27 06:31:00,54.1,50.3,29.70,North,-999,-999.0,-999.0,87,-99.99,,,-99.99,Netatmo,2013-03-27 05:31:00,
2013-03-27 06:41:00,54.1,50.3,29.70,North,-999,-999.0,-999.0,87,-99.99,,,-99.99,Netatmo,2013-03-27 05:41:00,
2013-03-27 06:46:00,54.3,50.5,29.70,North,-999,-999.0,-999.0,87,-99.99,,,-99.99,Netatmo,2013-03-27 05:46:00,
2013-03-27 06:51:00,54.3,50.5,29.70,North,-999,-999.0,-999.0,87,-99.99,,,-99.99,Netatmo,2013-03-27 05:51:00,
2013-03-27 07:01:00,54.5,50.7,29.70,North,-999,-999.0,-999.0,87,-99.99,,,-99.99,Netatmo,2013-03-27 06:01:00,
2013-03-27 07:06:00,54.7,50.9,29.70,North,-999,-999.0,-999.0,87,-99.99,,,-99.99,Netatmo,2013-03-27 06:06:00,
2013-03-27 07:11:00,54.7,50.9,29.70,North,-999,-999.0,-999.0,87,-99.99,,,-99.99,Netatmo,2013-03-27 06:11:00,
2013-03-27 07:21:00,55.0,51.2,29.70,North,-999,-999.0,-999.0,87,-99.99,,,-99.99,Netatmo,2013-03-27 06:21:00,
2013-03-27 07:31:00,55.4,51.9,29.71,North,-999,-999.0,-999.0,88,-99.99,,,-99.99,Netatmo,2013-03-27 06:31:00,
2013-03-27 07:36:00,55.6,52.1,29.72,North,-999,-999.0,-999.0,88,-99.99,,,-99.99,Netatmo,2013-03-27 06:36:00,
2013-03-27 07:41:00,55.6,52.1,29.72,North,-999,-999.0,-999.0,88,-99.99,,,-99.99,Netatmo,2013-03-27 06:41:00,
2013-03-27 07:46:00,55.8,52.2,29.72,North,-999,-999.0,-999.0,88,-99.99,,,-99.99,Netatmo,2013-03-27 06:46:00,
2013-03-27 07:56:00,55.9,52.4,29.72,North,-999,-999.0,-999.0,88,-99.99,,,-99.99,Netatmo,2013-03-27 06:56:00,
2013-03-27 08:01:00,55.9,52.4,29.72,North,-999,-999.0,-999.0,88,-99.99,,,-99.99,Netatmo,2013-03-27 07:01:00,
2013-03-27 08:06:00,56.3,52.8,29.72,North,-999,-999.0,-999.0,88,-99.99,,,-99.99,Netatmo,2013-03-27 07:06:00,
2013-03-27 08:11:00,56.3,52.8,29.72,North,-999,-999.0,-999.0,88,-99.99,,,-99.99,Netatmo,2013-03-27 07:11:00,
2013-03-27 08:16:00,56.7,53.1,29.72,North,-999,-999.0,-999.0,88,-99.99,,,-99.99,Netatmo,2013-03-27 07:16:00,
2013-03-27 08:26:00,56.8,53.3,29.72,North,-999,-999.0,-999.0,88,-99.99,,,-99.99,Netatmo,2013-03-27 07:26:00,
2013-03-27 08:36:00,57.0,53.5,29.73,North,-999,-999.0,-999.0,88,-99.99,,,-99.99,Netatmo,2013-03-27 07:36:00,
2013-03-27 08:41:00,57.0,53.5,29.73,North,-999,-999.0,-999.0,88,-99.99,,,-99.99,Netatmo,2013-03-27 07:41:00,
2013-03-27 08:51:00,57.2,53.7,29.72,North,-999,-999.0,-999.0,88,-99.99,,,-99.99,Netatmo,2013-03-27 07:51:00,
2013-03-27 08:56:00,57.4,53.5,29.73,North,-999,-999.0,-999.0,87,-99.99,,,-99.99,Netatmo,2013-03-27 07:56:00,
2013-03-27 09:06:00,57.4,53.5,29.73,North,-999,-999.0,-999.0,87,-99.99,,,-99.99,Netatmo,2013-03-27 08:06:00,
2013-03-27 09:16:00,57.6,53.7,29.73,North,-999,-999.0,-999.0,87,-99.99,,,-99.99,Netatmo,2013-03-27 08:16:00,
2013-03-27 09:21:00,57.6,53.7,29.73,North,-999,-999.0,-999.0,87,-99.99,,,-99.99,Netatmo,2013-03-27 08:21:00,
2013-03-27 09:26:00,57.7,53.9,29.74,North,-999,-999.0,-999.0,87,-99.99,,,-99.99,Netatmo,2013-03-27 08:26:00,
2013-03-27 09:31:00,57.7,53.9,29.74,North,-999,-999.0,-999.0,87,-99.99,,,-99.99,Netatmo,2013-03-27 08:31:00,
2013-03-27 09:36:00,57.7,53.9,29.75,North,-999,-999.0,-999.0,87,-99.99,,,-99.99,Netatmo,2013-03-27 08:36:00,
2013-03-27 09:41:00,57.7,53.9,29.75,North,-999,-999.0,-999.0,87,-99.99,,,-99.99,Netatmo,2013-03-27 08:41:00,
2013-03-27 09:46:00,57.9,54.1,29.75,North,-999,-999.0,-999.0,87,-99.99,,,-99.99,Netatmo,2013-03-27 08:46:00,
2013-03-27 09:51:00,57.9,54.1,29.75,North,-999,-999.0,-999.0,87,-99.99,,,-99.99,Netatmo,2013-03-27 08:51:00,
2013-03-27 10:01:00,57.7,53.9,29.75,North,-999,-999.0,-999.0,87,-99.99,,,-99.99,Netatmo,2013-03-27 09:01:00,
2013-03-27 10:16:00,58.5,54.3,29.76,North,-999,-999.0,-999.0,86,-99.99,,,-99.99,Netatmo,2013-03-27 09:16:00,
2013-03-27 10:21:00,58.5,54.3,29.76,North,-999,-999.0,-999.0,86,-99.99,,,-99.99,Netatmo,2013-03-27 09:21:00,
2013-03-27 10:31:00,58.6,54.5,29.77,North,-999,-999.0,-999.0,86,-99.99,,,-99.99,Netatmo,2013-03-27 09:31:00,
2013-03-27 10:41:00,58.6,54.5,29.77,North,-999,-999.0,-999.0,86,-99.99,,,-99.99,Netatmo,2013-03-27 09:41:00,
2013-03-27 10:51:00,58.6,54.5,29.78,North,-999,-999.0,-999.0,86,-99.99,,,-99.99,Netatmo,2013-03-27 09:51:00,
2013-03-27 10:56:00,58.6,54.5,29.78,North,-999,-999.0,-999.0,86,-99.99,,,-99.99,Netatmo,2013-03-27 09:56:00,
2013-03-27 11:06:00,58.6,54.5,29.78,North,-999,-999.0,-999.0,86,-99.99,,,-99.99,Netatmo,2013-03-27 10:06:00,
2013-03-27 11:11:00,58.6,54.5,29.78,North,-999,-999.0,-999.0,86,-99.99,,,-99.99,Netatmo,2013-03-27 10:11:00,
2013-03-27 11:16:00,58.6,54.5,29.78,North,-999,-999.0,-999.0,86,-99.99,,,-99.99,Netatmo,2013-03-27 10:16:00,
2013-03-27 11:21:00,58.6,54.5,29.78,North,-999,-999.0,-999.0,86,-99.99,,,-99.99,Netatmo,2013-03-27 10:21:00,
2013-03-27 11:31:00,58.6,54.5,29.78,North,-999,-999.0,-999.0,86,-99.99,,,-99.99,Netatmo,2013-03-27 10:31:00,
2013-03-27 11:41:00,58.8,54.3,29.79,North,-999,-999.0,-999.0,85,-99.99,,,-99.99,Netatmo,2013-03-27 10:41:00,
2013-03-27 11:51:00,58.8,54.3,29.79,North,-999,-999.0,-999.0,85,-99.99,,,-99.99,Netatmo,2013-03-27 10:51:00,
2013-03-27 12:01:00,59.0,54.5,29.79,North,-999,-999.0,-999.0,85,-99.99,,,-99.99,Netatmo,2013-03-27 11:01:00,
2013-03-27 12:06:00,59.0,54.5,29.79,North,-999,-999.0,-999.0,85,-99.99,,,-99.99,Netatmo,2013-03-27 11:06:00,
2013-03-27 12:15:00,59.0,54.5,29.79,North,-999,-999.0,-999.0,85,-99.99,,,-99.99,Netatmo,2013-03-27 11:15:00,
2013-03-27 12:16:00,59.0,54.5,29.79,North,-999,-999.0,-999.0,85,-99.99,,,-99.99,Netatmo,2013-03-27 11:16:00,
2013-03-27 12:25:00,59.2,54.7,29.80,North,-999,-999.0,-999.0,85,-99.99,,,-99.99,Netatmo,2013-03-27 11:25:00,
2013-03-27 12:31:00,59.2,54.7,29.80,North,-999,-999.0,-999.0,85,-99.99,,,-99.99,Netatmo,2013-03-27 11:31:00,
2013-03-27 12:35:00,59.4,54.5,29.79,North,-999,-999.0,-999.0,84,-99.99,,,-99.99,Netatmo,2013-03-27 11:35:00,
2013-03-27 12:41:00,59.4,54.5,29.79,North,-999,-999.0,-999.0,84,-99.99,,,-99.99,Netatmo,2013-03-27 11:41:00,
2013-03-27 12:45:00,59.7,54.9,29.79,North,-999,-999.0,-999.0,84,-99.99,,,-99.99,Netatmo,2013-03-27 11:45:00,
2013-03-27 12:51:00,59.7,54.9,29.79,North,-999,-999.0,-999.0,84,-99.99,,,-99.99,Netatmo,2013-03-27 11:51:00,
2013-03-27 12:55:00,59.9,55.1,29.80,North,-999,-999.0,-999.0,84,-99.99,,,-99.99,Netatmo,2013-03-27 11:55:00,
2013-03-27 13:01:00,59.9,55.1,29.80,North,-999,-999.0,-999.0,84,-99.99,,,-99.99,Netatmo,2013-03-27 12:01:00,
2013-03-27 13:05:00,60.1,55.2,29.80,North,-999,-999.0,-999.0,84,-99.99,,,-99.99,Netatmo,2013-03-27 12:05:00,
2013-03-27 13:11:00,60.1,55.2,29.80,North,-999,-999.0,-999.0,84,-99.99,,,-99.99,Netatmo,2013-03-27 12:11:00,
2013-03-27 13:21:00,59.7,54.6,29.80,North,-999,-999.0,-999.0,83,-99.99,,,-99.99,Netatmo,2013-03-27 12:21:00,
2013-03-27 14:50:00,59.0,53.5,29.80,North,-999,-999.0,-999.0,82,-99.99,,,-99.99,Netatmo,2013-03-27 13:50:00,
2013-03-27 14:55:00,59.0,53.5,29.80,North,-999,-999.0,-999.0,82,-99.99,,,-99.99,Netatmo,2013-03-27 13:55:00,
2013-03-27 15:00:00,59.0,53.5,29.80,North,-999,-999.0,-999.0,82,-99.99,,,-99.99,Netatmo,2013-03-27 14:00:00,
2013-03-27 15:05:00,59.0,53.5,29.80,North,-999,-999.0,-999.0,82,-99.99,,,-99.99,Netatmo,2013-03-27 14:05:00,
2013-03-27 15:10:00,58.8,53.0,29.80,North,-999,-999.0,-999.0,81,-99.99,,,-99.99,Netatmo,2013-03-27 14:10:00,
2013-03-27 15:15:00,58.8,53.0,29.80,North,-999,-999.0,-999.0,81,-99.99,,,-99.99,Netatmo,2013-03-27 14:15:00,
2013-03-27 15:20:00,58.3,51.9,29.81,North,-999,-999.0,-999.0,79,-99.99,,,-99.99,Netatmo,2013-03-27 14:20:00,
2013-03-27 15:25:00,58.3,51.9,29.81,North,-999,-999.0,-999.0,79,-99.99,,,-99.99,Netatmo,2013-03-27 14:25:00,
2013-03-27 15:30:00,57.9,51.2,29.81,North,-999,-999.0,-999.0,78,-99.99,,,-99.99,Netatmo,2013-03-27 14:30:00,
2013-03-27 15:35:00,57.9,51.2,29.81,North,-999,-999.0,-999.0,78,-99.99,,,-99.99,Netatmo,2013-03-27 14:35:00,
2013-03-27 15:40:00,57.6,50.8,29.82,North,-999,-999.0,-999.0,78,-99.99,,,-99.99,Netatmo,2013-03-27 14:40:00,
2013-03-27 15:45:00,57.6,50.8,29.82,North,-999,-999.0,-999.0,78,-99.99,,,-99.99,Netatmo,2013-03-27 14:45:00,
2013-03-27 15:50:00,57.4,50.6,29.82,North,-999,-999.0,-999.0,78,-99.99,,,-99.99,Netatmo,2013-03-27 14:50:00,
2013-03-27 15:55:00,57.4,50.6,29.82,North,-999,-999.0,-999.0,78,-99.99,,,-99.99,Netatmo,2013-03-27 14:55:00,
2013-03-27 16:00:00,57.4,50.6,29.82,North,-999,-999.0,-999.0,78,-99.99,,,-99.99,Netatmo,2013-03-27 15:00:00,
2013-03-27 16:05:00,57.4,50.6,29.82,North,-999,-999.0,-999.0,78,-99.99,,,-99.99,Netatmo,2013-03-27 15:05:00,
2013-03-27 16:10:00,57.6,50.8,29.82,North,-999,-999.0,-999.0,78,-99.99,,,-99.99,Netatmo,2013-03-27 15:10:00,
2013-03-27 16:15:00,57.6,50.8,29.82,North,-999,-999.0,-999.0,78,-99.99,,,-99.99,Netatmo,2013-03-27 15:15:00,
2013-03-27 16:20:00,57.4,50.3,29.82,North,-999,-999.0,-999.0,77,-99.99,,,-99.99,Netatmo,2013-03-27 15:20:00,
2013-03-27 16:25:00,57.4,50.3,29.82,North,-999,-999.0,-999.0,77,-99.99,,,-99.99,Netatmo,2013-03-27 15:25:00,
2013-03-27 16:30:00,57.2,50.1,29.83,North,-999,-999.0,-999.0,77,-99.99,,,-99.99,Netatmo,2013-03-27 15:30:00,
2013-03-27 16:35:00,57.2,50.1,29.83,North,-999,-999.0,-999.0,77,-99.99,,,-99.99,Netatmo,2013-03-27 15:35:00,
2013-03-27 16:40:00,57.0,50.3,29.82,North,-999,-999.0,-999.0,78,-99.99,,,-99.99,Netatmo,2013-03-27 15:40:00,
2013-03-27 16:45:00,57.0,50.3,29.82,North,-999,-999.0,-999.0,78,-99.99,,,-99.99,Netatmo,2013-03-27 15:45:00,
2013-03-27 16:50:00,57.0,50.6,29.82,North,-999,-999.0,-999.0,79,-99.99,,,-99.99,Netatmo,2013-03-27 15:50:00,
2013-03-27 16:55:00,57.0,50.6,29.82,North,-999,-999.0,-999.0,79,-99.99,,,-99.99,Netatmo,2013-03-27 15:55:00,
2013-03-27 17:00:00,56.7,50.3,29.83,North,-999,-999.0,-999.0,79,-99.99,,,-99.99,Netatmo,2013-03-27 16:00:00,
2013-03-27 17:05:00,56.7,50.3,29.83,North,-999,-999.0,-999.0,79,-99.99,,,-99.99,Netatmo,2013-03-27 16:05:00,
2013-03-27 17:10:00,56.5,50.1,29.83,North,-999,-999.0,-999.0,79,-99.99,,,-99.99,Netatmo,2013-03-27 16:10:00,
2013-03-27 17:15:00,56.5,50.1,29.83,North,-999,-999.0,-999.0,79,-99.99,,,-99.99,Netatmo,2013-03-27 16:15:00,
2013-03-27 17:20:00,56.3,50.3,29.84,North,-999,-999.0,-999.0,80,-99.99,,,-99.99,Netatmo,2013-03-27 16:20:00,
2013-03-27 17:25:00,56.3,50.3,29.84,North,-999,-999.0,-999.0,80,-99.99,,,-99.99,Netatmo,2013-03-27 16:25:00,
2013-03-27 17:30:00,56.1,50.1,29.84,North,-999,-999.0,-999.0,80,-99.99,,,-99.99,Netatmo,2013-03-27 16:30:00,
2013-03-27 17:35:00,56.1,50.1,29.84,North,-999,-999.0,-999.0,80,-99.99,,,-99.99,Netatmo,2013-03-27 16:35:00,
2013-03-27 17:40:00,55.8,50.1,29.84,North,-999,-999.0,-999.0,81,-99.99,,,-99.99,Netatmo,2013-03-27 16:40:00,
2013-03-27 17:45:00,55.8,50.1,29.84,North,-999,-999.0,-999.0,81,-99.99,,,-99.99,Netatmo,2013-03-27 16:45:00,
2013-03-27 17:50:00,55.4,50.0,29.84,North,-999,-999.0,-999.0,82,-99.99,,,-99.99,Netatmo,2013-03-27 16:50:00,
2013-03-27 17:55:00,55.4,50.0,29.84,North,-999,-999.0,-999.0,82,-99.99,,,-99.99,Netatmo,2013-03-27 16:55:00,
2013-03-27 18:00:00,55.2,49.8,29.85,North,-999,-999.0,-999.0,82,-99.99,,,-99.99,Netatmo,2013-03-27 17:00:00,